AI5KP-13 Weather Reports


time (UTC)temp
F
wind
direction
speed
knots
gust
knots
rain 1hr
in
rain 24hr
in
rain mn
in
humidity
%
barometer
mb
20260510082738 68 189 0.9 0.9 0.00 0.00 0.00 76 1012.4
20260510082235 68 145 2.6 5.2 0.00 0.00 0.00 77 1012.4
20260510081733 64 183 1.7 1.7 0.00 0.00 0.00 81 1012.9
20260510081230 64 224 5.2 6.1 0.00 0.00 0.00 84 1012.8
20260510080725 59 224 4.3 5.2 0.00 0.00 0.00 93 1013.0
20260510080221 60 138 0.9 0.9 0.00 0.00 0.00 93 1012.8
20260510075718 60 138 1.7 2.6 0.00 0.00 0.00 91 1013.0
20260510075216 60 137 0.0 0.0 0.00 0.00 0.00 89 1013.0
20260510074713 60 136 0.0 0.0 0.00 0.00 0.00 90 1012.8
20260510074209 60 148 0.0 0.0 0.00 0.00 0.00 91 1012.8
20260510073706 60 148 0.0 0.0 0.00 0.00 0.00 91 1013.1
20260510073201 59 148 0.0 0.0 0.00 0.00 0.00 92 1013.0
20260510072657 59 148 0.0 0.0 0.00 0.00 0.00 93 1012.9
20260510072154 59 148 0.9 0.9 0.00 0.00 0.00 92 1012.8
20260510071650 59 149 0.9 0.9 0.00 0.00 0.00 92 1012.8
20260510071148 59 149 0.0 0.0 0.00 0.00 0.00 92 1012.8
20260510070645 59 149 0.0 0.0 0.00 0.00 0.00 92 1012.9
20260510070143 59 149 0.0 0.0 0.00 0.00 0.00 92 1013.0
20260510065643 59 147 0.9 0.9 0.00 0.00 0.00 92 1013.2
20260510065139 59 89 0.9 1.7 0.00 0.00 0.00 92 1013.1
20260510064636 60 331 0.9 0.9 0.00 0.00 0.00 92 1013.1
20260510064133 59 271 0.9 0.9 0.00 0.00 0.00 91 1013.3
20260510063629 59 270 0.9 0.9 0.00 0.00 0.00 91 1013.4
20260510063126 59 271 0.0 0.0 0.00 0.00 0.00 93 1013.4
20260510062622 59 271 0.0 0.0 0.00 0.00 0.00 93 1013.4
20260510062118 59 271 0.0 0.0 0.00 0.00 0.00 93 1013.5
20260510061614 59 271 0.9 0.9 0.00 0.00 0.00 93 1013.6
20260510061112 59 271 0.0 0.0 0.00 0.00 0.00 93 1013.5
20260510060607 59 271 0.9 0.9 0.00 0.00 0.00 93 1013.5
20260510060104 59 269 0.0 0.0 0.00 0.00 0.00 93 1013.8
20260510055600 59 276 0.9 0.9 0.00 0.00 0.00 93 1013.5
20260510055058 58 63 0.0 0.0 0.00 0.00 0.00 93 1013.5
20260510054549 58 63 0.0 0.0 0.00 0.00 0.00 93 1013.3
20260510054044 58 63 0.0 0.0 0.00 0.00 0.00 93 1013.2
20260510053544 58 63 0.0 0.0 0.00 0.00 0.00 92 1013.3
20260510053041 58 63 0.0 0.0 0.00 0.00 0.00 91 1013.1
20260510052537 58 63 0.0 0.0 0.00 0.00 0.00 90 1013.1
20260510052033 59 63 0.0 0.0 0.00 0.00 0.00 90 1013.0
20260510051529 59 63 0.0 0.0 0.00 0.00 0.00 90 1012.9
20260510051025 59 63 0.0 0.0 0.00 0.00 0.00 89 1013.0
20260510050523 59 63 0.0 0.0 0.00 0.00 0.00 89 1013.1
20260510050020 59 63 0.0 0.0 0.00 0.00 0.00 88 1013.1
20260510045517 59 63 0.0 0.0 0.00 0.00 0.00 89 1012.8
20260510045013 58 63 0.0 0.0 0.00 0.00 0.00 90 1013.1
20260510044510 58 63 0.0 0.0 0.00 0.00 0.00 89 1012.9
20260510044008 59 63 0.0 0.0 0.00 0.00 0.00 88 1012.7
20260510043502 59 63 0.0 0.0 0.00 0.00 0.00 89 1012.7
20260510043001 58 63 0.0 0.0 0.00 0.00 0.00 89 1012.7
20260510042457 58 63 0.0 0.9 0.00 0.00 0.00 90 1012.6
20260510041952 59 63 1.7 1.7 0.00 0.00 0.00 89 1012.4
20260510041450 59 63 0.9 1.7 0.00 0.00 0.00 88 1012.4
20260510040948 60 64 0.0 0.0 0.00 0.00 0.00 87 1012.6
20260510040444 60 64 0.0 0.0 0.00 0.00 0.00 88 1012.4
20260510035940 59 63 0.0 0.0 0.00 0.00 0.00 88 1012.8
20260510035436 59 63 0.0 0.0 0.00 0.00 0.00 88 1012.8
20260510034936 59 63 0.0 0.0 0.00 0.00 0.00 87 1012.8
20260510034435 60 63 0.9 0.9 0.00 0.00 0.00 87 1012.8
20260510033931 60 64 0.0 0.0 0.00 0.00 0.00 85 1012.3
20260510033427 60 61 0.0 0.0 0.00 0.00 0.00 85 1012.1
20260510032924 61 63 0.0 0.0 0.00 0.00 0.00 83 1011.9
20260510032421 61 63 0.0 0.0 0.00 0.00 0.00 81 1011.9
20260510031916 62 63 0.0 0.0 0.00 0.00 0.00 78 1011.8
20260510031413 62 63 0.0 0.0 0.00 0.00 0.00 78 1011.8
20260510030913 63 61 0.0 0.0 0.00 0.00 0.00 76 1011.6
20260510030409 63 61 0.0 0.0 0.00 0.00 0.00 75 1011.6
20260510025907 63 61 0.0 0.0 0.00 0.00 0.00 74 1011.3
20260510025404 64 56 0.0 0.0 0.00 0.00 0.00 74 1011.4
20260510024901 64 63 0.0 0.0 0.00 0.00 0.00 72 1011.5
20260510024358 65 63 0.0 0.0 0.00 0.00 0.00 71 1011.4
20260510023853 66 61 0.0 0.0 0.00 0.00 0.00 70 1011.2
20260510023350 67 56 0.0 0.0 0.00 0.00 0.00 67 1011.1
20260510022848 67 64 0.0 0.0 0.00 0.00 0.00 65 1011.1
20260510022347 67 64 0.0 0.0 0.00 0.00 0.00 66 1010.9
20260510021845 67 63 0.9 0.9 0.00 0.00 0.00 65 1010.7
20260510021344 67 61 0.0 0.0 0.00 0.00 0.00 64 1010.8
20260510020840 68 60 0.0 0.0 0.00 0.00 0.00 64 1010.7
20260510020335 68 64 0.0 0.0 0.00 0.00 0.00 63 1010.5
20260510015831 68 63 0.0 0.0 0.00 0.00 0.00 64 1010.5
20260510015327 69 65 0.0 0.0 0.00 0.00 0.00 63 1010.4
20260510014822 69 55 0.9 0.9 0.00 0.00 0.00 62 1010.2
20260510014320 70 98 0.9 0.9 0.00 0.00 0.00 60 1010.1
20260510013816 69 102 0.9 0.9 0.00 0.00 0.00 61 1010.1
20260510013311 71 125 0.9 0.9 0.00 0.00 0.00 60 1010.2
20260510012806 73 151 0.0 0.0 0.00 0.00 0.00 55 1009.9
20260510012300 73 151 0.0 0.0 0.00 0.00 0.00 54 1010.0
20260510011755 72 152 0.0 0.9 0.00 0.00 0.00 55 1009.8
20260510011251 72 128 0.9 0.9 0.00 0.00 0.00 56 1009.7
20260510010748 72 157 0.9 0.9 0.00 0.00 0.00 55 1009.7
20260510010244 74 121 0.9 1.7 0.00 0.00 0.00 54 1009.7
20260510005742 74 148 0.0 0.9 0.00 0.00 0.00 51 1009.7
20260510005238 75 114 0.0 0.0 0.00 0.00 0.00 50 1009.6
20260510004736 76 125 0.0 0.9 0.00 0.00 0.00 48 1009.3
20260510004233 77 125 0.0 0.9 0.00 0.00 0.00 48 1009.3
20260510003731 77 141 0.0 0.0 0.00 0.00 0.00 49 1009.2
20260510003227 78 140 0.0 0.0 0.00 0.00 0.00 45 1009.3
20260510002725 79 158 0.0 0.0 0.00 0.00 0.00 44 1009.2
20260510002223 79 155 0.0 0.0 0.00 0.00 0.00 41 1009.2
20260510001720 79 184 0.0 0.0 0.00 0.00 0.00 42 1009.3
20260510001218 80 137 0.9 1.7 0.00 0.00 0.00 41 1009.2
20260510000714 81 68 0.9 0.9 0.00 0.00 0.00 38 1009.2
20260510000212 80 68 0.0 0.0 0.00 0.00 0.00 37 1009.2
20260509235708 80 71 0.0 0.0 0.00 0.00 0.00 36 1009.3
20260509235204 80 46 0.9 0.9 0.00 0.00 0.00 35 1009.6
20260509234701 81 73 0.9 1.7 0.00 0.00 0.00 35 1009.1
20260509234158 81 54 1.7 2.6 0.00 0.00 0.00 35 1009.4
20260509233656 81 78 0.0 0.0 0.00 0.00 0.00 36 1009.4
20260509233153 82 51 0.9 1.7 0.00 0.00 0.00 35 1009.6
20260509232649 82 41 1.7 1.7 0.00 0.00 0.00 31 1009.6
20260509232146 84 29 0.9 1.7 0.00 0.00 0.00 31 1009.6
20260509231643 84 0 0.0 0.9 0.00 0.00 0.00 28 1009.7
20260509231140 83 61 0.9 0.9 0.00 0.00 0.00 28 1009.8
20260509230637 83 86 0.9 0.9 0.00 0.00 0.00 29 1009.7
20260509230134 83 63 0.0 0.0 0.00 0.00 0.00 30 1009.6
20260509225630 83 48 0.9 1.7 0.00 0.00 0.00 30 1009.6
20260509225125 82 115 0.9 0.9 0.00 0.00 0.00 30 1009.4
20260509224621 84 44 2.6 2.6 0.00 0.00 0.00 28 1009.6
20260509224118 82 29 0.9 1.7 0.00 0.00 0.00 28 1009.8
20260509223615 82 30 1.7 2.6 0.00 0.00 0.00 30 1009.7
20260509223113 82 67 0.9 1.7 0.00 0.00 0.00 31 1009.7
20260509222608 83 35 1.7 1.7 0.00 0.00 0.00 32 1009.7
20260509222105 85 170 1.7 1.7 0.00 0.00 0.00 30 1009.8
20260509221600 83 185 0.9 0.9 0.00 0.00 0.00 28 1009.8
20260509221057 83 154 0.9 1.7 0.00 0.00 0.00 31 1009.8
20260509220552 84 198 0.0 0.9 0.00 0.00 0.00 29 1009.7
20260509220049 84 148 2.6 2.6 0.00 0.00 0.00 27 1009.8
20260509215544 84 135 1.7 1.7 0.00 0.00 0.00 25 1009.7
20260509215042 84 78 3.5 3.5 0.00 0.00 0.00 29 1009.8
20260509214539 85 73 0.0 0.0 0.00 0.00 0.00 28 1009.9
20260509214036 84 218 0.0 0.0 0.00 0.00 0.00 29 1009.8
20260509213532 85 21 1.7 2.6 0.00 0.00 0.00 30 1009.8
20260509213029 84 18 0.0 0.0 0.00 0.00 0.00 30 1010.0
20260509212526 87 60 1.7 3.5 0.00 0.00 0.00 31 1009.9
20260509212023 84 18 0.0 0.0 0.00 0.00 0.00 28 1009.9
20260509211518 84 154 1.7 2.6 0.00 0.00 0.00 28 1009.9
20260509211016 85 68 0.9 0.9 0.00 0.00 0.00 28 1009.9
20260509210512 84 65 5.2 6.1 0.00 0.00 0.00 31 1010.2
20260509210009 85 148 1.7 2.6 0.00 0.00 0.00 29 1010.1
20260509205503 86 163 0.9 0.9 0.00 0.00 0.00 27 1010.2
20260509204958 86 275 0.9 0.9 0.00 0.00 0.00 26 1010.3
20260509204455 83 35 2.6 3.5 0.00 0.00 0.00 29 1010.1
20260509203951 84 96 1.7 2.6 0.00 0.00 0.00 30 1010.2
20260509203447 85 182 0.0 0.0 0.00 0.00 0.00 27 1010.5
20260509202945 86 71 0.9 0.9 0.00 0.00 0.00 26 1010.4
20260509202441 84 219 1.7 1.7 0.00 0.00 0.00 30 1010.6
20260509201936 86 44 2.6 2.6 0.00 0.00 0.00 26 1010.6
20260509201431 85 166 1.7 1.7 0.00 0.00 0.00 31 1010.4
20260509200929 89 10 0.0 1.7 0.00 0.00 0.00 27 1010.5
20260509200428 86 261 0.0 0.0 0.00 0.00 0.00 24 1010.6
20260509195925 86 42 1.7 1.7 0.00 0.00 0.00 28 1010.8
20260509195421 83 128 0.0 0.9 0.00 0.00 0.00 29 1010.8
20260509194920 85 8 0.9 1.7 0.00 0.00 0.00 30 1011.0
20260509194416 87 52 1.7 1.7 0.00 0.00 0.00 29 1010.7
20260509193914 86 142 0.9 1.7 0.00 0.00 0.00 28 1010.8
20260509193413 86 178 0.0 0.0 0.00 0.00 0.00 27 1010.7
20260509192909 86 266 0.9 0.9 0.00 0.00 0.00 31 1010.7
20260509192405 86 233 0.9 1.7 0.00 0.00 0.00 36 1010.7
20260509191901 86 264 0.9 1.7 0.00 0.00 0.00 31 1010.9
20260509191357 85 6 3.5 5.2 0.00 0.00 0.00 34 1010.9
20260509190853 87 204 1.7 1.7 0.00 0.00 0.00 32 1010.7
20260509190350 85 241 0.0 0.9 0.00 0.00 0.00 31 1011.0
20260509185848 87 56 3.5 5.2 0.00 0.00 0.00 33 1010.8
20260509185344 87 300 1.7 3.5 0.00 0.00 0.00 31 1010.9
20260509184841 87 212 0.0 0.0 0.00 0.00 0.00 32 1011.0
20260509184338 84 61 0.9 1.7 0.00 0.00 0.00 32 1011.2
20260509183835 89 37 0.9 0.9 0.00 0.00 0.00 30 1011.1
20260509183330 86 291 0.0 0.9 0.00 0.00 0.00 30 1011.1
20260509182826 87 86 0.9 1.7 0.00 0.00 0.00 30 1011.0
20260509182323 88 285 1.7 1.7 0.00 0.00 0.00 29 1011.1
20260509181821 85 282 0.9 0.9 0.00 0.00 0.00 31 1011.2
20260509181318 83 262 0.0 0.9 0.00 0.00 0.00 37 1011.1
20260509180815 82 252 0.9 0.9 0.00 0.00 0.00 36 1011.2
20260509180311 81 154 1.7 2.6 0.00 0.00 0.00 39 1011.1
20260509175808 82 204 0.0 0.9 0.00 0.00 0.00 36 1011.1
20260509175306 81 188 1.7 2.6 0.00 0.00 0.00 39 1011.2
20260509174800 83 57 0.0 0.0 0.00 0.00 0.00 31 1011.2
20260509174256 86 19 1.7 2.6 0.00 0.00 0.00 33 1011.5
20260509173752 87 26 0.0 0.9 0.00 0.00 0.00 33 1011.4
20260509173247 88 219 0.0 0.0 0.00 0.00 0.00 38 1011.4
20260509172744 85 71 0.9 1.7 0.00 0.00 0.00 40 1011.5
20260509172241 81 283 0.9 1.7 0.00 0.00 0.00 48 1011.4
20260509171736 81 254 2.6 3.5 0.00 0.00 0.00 50 1011.6
20260509171233 85 279 1.7 2.6 0.00 0.00 0.00 47 1011.4
20260509170729 81 350 1.7 1.7 0.00 0.00 0.00 47 1011.4
20260509170225 81 45 1.7 2.6 0.00 0.00 0.00 50 1011.6
20260509165724 84 61 0.0 0.0 0.00 0.00 0.00 48 1011.5
20260509165219 83 58 0.9 1.7 0.00 0.00 0.00 48 1011.6
20260509164715 82 326 1.7 1.7 0.00 0.00 0.00 48 1011.5
20260509164211 78 248 0.0 0.0 0.00 0.00 0.00 54 1011.5
20260509163709 79 257 1.7 2.6 0.00 0.00 0.00 53 1011.5
20260509163205 81 255 0.9 0.9 0.00 0.00 0.00 53 1011.6
20260509162703 80 70 2.6 2.6 0.00 0.00 0.00 56 1011.6
20260509162158 80 275 0.9 0.9 0.00 0.00 0.00 51 1011.8
20260509161654 78 344 0.9 0.9 0.00 0.00 0.00 54 1011.8
20260509161150 76 359 0.9 2.6 0.00 0.00 0.00 58 1011.8
20260509160645 76 250 0.9 0.9 0.00 0.00 0.00 60 1011.8
20260509160141 79 274 1.7 2.6 0.00 0.00 0.00 63 1011.7
20260509155638 76 325 1.7 1.7 0.00 0.00 0.00 64 1011.8
20260509155134 75 218 0.0 0.0 0.00 0.00 0.00 68 1011.9
20260509154630 75 238 0.0 0.9 0.00 0.00 0.00 68 1011.9
20260509154127 74 276 0.9 0.9 0.00 0.00 0.00 71 1011.8
20260509153624 74 287 3.5 3.5 0.00 0.00 0.00 68 1011.7
20260509153121 76 230 0.9 1.7 0.00 0.00 0.00 73 1011.7
20260509152616 76 279 0.0 0.0 0.00 0.00 0.00 69 1011.7
20260509152114 73 278 0.0 0.0 0.00 0.00 0.00 70 1011.6
20260509151610 72 299 2.6 2.6 0.00 0.00 0.00 76 1011.6
20260509151108 72 210 2.6 2.6 0.00 0.00 0.00 78 1011.6
20260509150606 72 268 1.7 1.7 0.00 0.00 0.00 76 1011.7
20260509150104 70 210 0.9 0.9 0.00 0.00 0.00 78 1011.7
20260509145559 71 265 1.7 2.6 0.00 0.00 0.00 79 1011.7
20260509145055 73 268 1.7 1.7 0.00 0.00 0.00 74 1011.6
20260509144552 71 200 0.0 0.0 0.00 0.00 0.00 76 1011.7
20260509144049 69 149 0.0 0.0 0.00 0.00 0.00 77 1011.6
20260509143546 71 215 1.7 1.7 0.00 0.00 0.00 76 1011.5
20260509143044 71 204 0.9 0.9 0.00 0.00 0.00 77 1011.7
20260509142538 70 202 0.0 0.9 0.00 0.00 0.00 77 1011.7
20260509142035 73 178 0.9 1.7 0.00 0.00 0.00 71 1011.5
20260509141531 72 145 0.0 0.0 0.00 0.00 0.00 73 1011.4
20260509141028 69 145 0.0 0.0 0.00 0.00 0.00 77 1011.6
20260509140525 68 144 0.0 0.0 0.00 0.00 0.00 77 1011.5
20260509140023 66 144 0.0 0.9 0.00 0.00 0.00 84 1011.4
20260509135520 66 143 0.0 0.0 0.00 0.00 0.00 80 1011.4
20260509135017 64 162 0.0 0.0 0.00 0.00 0.00 85 1011.2
20260509134514 61 131 0.0 0.0 0.00 0.00 0.00 88 1011.3
20260509134012 60 118 0.9 0.9 0.00 0.00 0.00 90 1011.0
20260509133508 59 116 1.7 2.6 0.00 0.00 0.00 91 1011.0
20260509133007 58 264 0.9 1.7 0.00 0.00 0.00 94 1011.1
20260509132504 59 265 0.0 0.0 0.00 0.00 0.00 96 1011.2
20260509132001 59 265 0.0 0.0 0.00 0.00 0.00 96 1011.1
20260509131458 58 265 0.0 0.0 0.00 0.00 0.00 96 1011.2
20260509130955 57 264 0.0 0.0 0.00 0.00 0.00 96 1011.1
20260509130450 55 264 0.0 0.0 0.00 0.00 0.00 96 1011.1
20260509125948 53 264 0.0 0.0 0.00 0.00 0.00 96 1011.1
20260509125444 54 264 0.0 0.0 0.00 0.00 0.00 96 1011.0
20260509124940 54 264 0.0 0.0 0.00 0.00 0.00 96 1010.9
20260509124437 53 264 0.0 0.0 0.00 0.00 0.00 97 1010.8
20260509123934 52 264 0.0 0.0 0.00 0.00 0.00 97 1011.0
20260509123432 52 264 0.0 0.0 0.00 0.00 0.00 97 1010.8
20260509122928 51 264 0.0 0.0 0.00 0.00 0.00 97 1010.9
20260509122425 51 264 0.9 0.9 0.00 0.00 0.00 97 1010.7
20260509121921 51 264 0.0 0.0 0.00 0.00 0.00 97 1010.8
20260509121418 51 264 0.0 0.0 0.00 0.00 0.00 97 1010.7
20260509120917 50 264 0.0 0.0 0.00 0.00 0.00 97 1010.5
20260509120414 50 264 0.9 0.9 0.00 0.00 0.00 97 1010.6
20260509115912 50 264 0.0 0.0 0.00 0.00 0.00 97 1010.4
20260509115409 50 263 0.0 0.0 0.00 0.00 0.00 97 1010.4
20260509114906 50 263 0.0 0.0 0.00 0.00 0.00 97 1010.2
20260509114405 50 264 0.0 0.0 0.00 0.00 0.00 97 1010.2
20260509113904 50 264 0.0 0.0 0.00 0.00 0.00 97 1010.1
20260509113401 50 264 0.0 0.0 0.00 0.00 0.00 97 1010.2
20260509112857 50 264 0.0 0.0 0.00 0.00 0.00 97 1010.3
20260509112354 50 264 0.0 0.0 0.00 0.00 0.00 97 1010.1
20260509111852 50 264 0.0 0.0 0.00 0.00 0.00 96 1010.1
20260509111348 50 264 0.0 0.0 0.00 0.00 0.00 96 1010.1
20260509110846 50 264 0.9 0.9 0.00 0.00 0.00 96 1010.2
20260509110342 50 264 0.0 0.0 0.00 0.00 0.00 96 1010.1
20260509105841 50 264 0.0 0.0 0.00 0.00 0.00 96 1009.9
20260509105338 50 264 0.0 0.0 0.00 0.00 0.00 96 1009.9
20260509104835 50 264 0.0 0.0 0.00 0.00 0.00 96 1009.8
20260509104331 50 264 0.0 0.0 0.00 0.00 0.00 96 1009.8
20260509103829 50 264 0.0 0.0 0.00 0.00 0.00 96 1010.0
20260509103326 50 264 0.0 0.0 0.00 0.00 0.00 96 1009.9
20260509102825 50 264 0.0 0.0 0.00 0.00 0.00 96 1010.0
20260509102322 51 264 0.0 0.0 0.00 0.00 0.00 96 1009.9
20260509101818 51 264 0.0 0.0 0.00 0.00 0.00 96 1010.0
20260509101314 51 264 0.0 0.0 0.00 0.00 0.00 96 1009.8
20260509100812 51 264 0.0 0.0 0.00 0.00 0.00 96 1009.8
20260509100309 51 264 0.0 0.0 0.00 0.00 0.00 96 1009.8
20260509095805 50 264 0.0 0.0 0.00 0.00 0.00 96 1009.9
20260509095305 50 264 0.0 0.0 0.00 0.00 0.00 96 1009.7
20260509094800 51 264 0.0 0.0 0.00 0.00 0.00 96 1009.8
20260509094256 51 264 0.0 0.0 0.00 0.00 0.00 96 1010.1
20260509093754 51 264 0.0 0.0 0.00 0.00 0.00 96 1010.0
20260509093251 52 264 0.0 0.0 0.00 0.00 0.00 96 1010.0
20260509092750 52 264 0.0 0.0 0.00 0.00 0.00 96 1010.1
20260509092247 52 264 0.0 0.0 0.00 0.00 0.00 96 1009.8
20260509091745 52 264 0.0 0.0 0.00 0.00 0.00 96 1010.0
20260509091241 52 264 0.0 0.0 0.00 0.00 0.00 96 1010.1
20260509090739 53 264 0.9 0.9 0.00 0.00 0.00 96 1010.1
20260509090236 53 264 0.9 0.9 0.00 0.00 0.00 96 1010.0
20260509085733 52 264 0.0 0.0 0.00 0.00 0.00 96 1009.9
20260509085231 52 264 0.0 0.0 0.00 0.00 0.00 96 1010.0
20260509084727 52 264 0.0 0.0 0.00 0.00 0.00 96 1010.2
20260509084224 53 263 0.0 0.0 0.00 0.00 0.00 96 1010.2
20260509083722 53 263 0.0 0.0 0.00 0.00 0.00 96 1010.2